Gilze-Rijen, Netherlands

7:50 AM CEST on October 18, 2017 (GMT +0200)
Gilze-Rijen Air Base

Weather History for EHGR - November, 2012

Change the Weather History Date:

Sunday, November 18, 2012

  Actual Average Record
Temperature  
Mean Temperature 40 °F -  
Max Temperature 50 °F 43 °F 58 °F (2015)
Min Temperature 30 °F 34 °F 24 °F (1998)
Degree Days  
Heating Degree Days 25    
Moisture  
Dew Point 43 °F    
Average Humidity 98    
Maximum Humidity 100    
Minimum Humidity 76    
Precipitation  
Precipitation 0.00 in - - ()
Sea Level Pressure  
Sea Level Pressure 29.91 in    
Wind  
Wind Speed 4 mph ()    
Max Wind Speed 9 mph    
Max Gust Speed -    
Visibility 2.2 miles    
Events Fog , Rain    
Averages and records for this station are not official NWS values.
T = Trace of Precipitation, MM = Missing Value Source: Averaged Metar Reports

Daily Weather History Graph

Daily Weather History Graph

Search for Another Location

Airport or City:

Trip Planner

Search our weather history database for the weather conditions in past years. The results will help you decide how hot, cold, wet, or windy it might be!

Date:

Astronomy

Nov. 18, 2012 Rise Set
Actual Time 8:04 AM CET 4:46 PM CET
Civil Twilight 7:26 AM CET 5:23 PM CET
Nautical Twilight 6:45 AM CET 6:04 PM CET
Astronomical Twilight 6:05 AM CET 6:44 PM CET
Moon 12:15 PM CET 9:56 PM CET
Length of Visible Light 9h 57m
Length of Day
8h 42m
Waxing Crescent, 27% of the Moon is Illuminated
Nov 18
Waxing Crescent
Nov 20
First Quarter
Nov 28
Full
Dec 6
Last Quarter
Dec 13
New

Hourly Weather History & Observations

Time (CET) Temp. Windchill Dew Point Humidity Pressure Visibility Wind Dir Wind Speed Gust Speed Precip Events Conditions
12:06 AM 46.4 °F 43.5 °F 46.4 °F 100% 29.80 in 1.6 mi SSW 5.8 mph - N/A   Drizzle
12:16 AM 46.4 °F 44.3 °F 46.4 °F 100% 29.80 in 1.5 mi SW 4.6 mph - N/A Rain Light Rain
12:25 AM 46.4 °F 44.3 °F 46.4 °F 100% 29.80 in 1.5 mi SSW 4.6 mph - N/A   Drizzle
12:29 AM 46.4 °F 44.3 °F 46.4 °F 100% 29.80 in 1.5 mi SSW 4.6 mph - N/A   Drizzle
12:55 AM 46.4 °F 44.3 °F 46.4 °F 100% 29.80 in 1.6 mi SSW 4.6 mph - N/A Rain Light Rain
1:09 AM 46.4 °F 44.3 °F 46.4 °F 100% 29.80 in 1.5 mi SSW 4.6 mph - N/A   Light Drizzle
1:25 AM 46.4 °F 44.3 °F 46.4 °F 100% 29.80 in 1.4 mi SSW 4.6 mph - N/A   Overcast
1:55 AM 48.2 °F - 46.4 °F 93% 29.80 in 1.4 mi SSW 5.8 mph - N/A   Drizzle
2:12 AM 48.2 °F - 46.4 °F 93% 29.80 in 1.4 mi SW 3.5 mph - N/A   Light Drizzle
2:25 AM 48.2 °F - 46.4 °F 93% 29.80 in 1.2 mi WSW 3.5 mph - N/A   Overcast
2:29 AM 48.2 °F - 46.4 °F 93% 29.80 in 1.2 mi SW 3.5 mph - N/A   Mostly Cloudy
2:55 AM 48.2 °F - 48.2 °F 100% 29.80 in 0.8 mi WSW 3.5 mph - N/A   Drizzle
3:20 AM 48.2 °F - 48.2 °F 100% 29.80 in 0.6 mi West 3.5 mph - N/A   Drizzle
3:25 AM 48.2 °F - 48.2 °F 100% 29.80 in 0.6 mi West 3.5 mph - N/A   Drizzle
3:29 AM 48.2 °F - 48.2 °F 100% 29.80 in 0.6 mi West 4.6 mph - N/A   Heavy Drizzle
3:41 AM 48.2 °F - 48.2 °F 100% 29.80 in 1.2 mi WNW 5.8 mph - N/A   Heavy Drizzle
3:45 AM 48.2 °F - 48.2 °F 100% 29.80 in 1.5 mi WNW 5.8 mph - N/A   Heavy Drizzle
3:55 AM 48.2 °F - 48.2 °F 100% 29.80 in 1.7 mi NW 6.9 mph - N/A   Heavy Drizzle
4:08 AM 48.2 °F - 46.4 °F 93% 29.80 in 1.8 mi NW 8.1 mph - N/A   Heavy Drizzle
4:16 AM 46.4 °F 42.4 °F 46.4 °F 100% 29.80 in - NNW 8.1 mph - N/A   Heavy Drizzle
4:20 AM 46.4 °F 42.9 °F 46.4 °F 100% 29.80 in 3.1 mi NNW 6.9 mph - N/A   Drizzle
4:25 AM 46.4 °F 43.5 °F 46.4 °F 100% 29.80 in 3.7 mi North 5.8 mph - N/A Rain Light Rain
4:35 AM 46.4 °F 43.5 °F 46.4 °F 100% 29.80 in 3.7 mi North 5.8 mph - N/A   Drizzle
4:55 AM 46.4 °F 45.2 °F 46.4 °F 100% 29.80 in - North 3.5 mph - N/A   Drizzle
5:12 AM 46.4 °F 44.3 °F 46.4 °F 100% 29.80 in 2.2 mi North 4.6 mph - N/A   Drizzle
5:25 AM 46.4 °F 45.2 °F 46.4 °F 100% 29.80 in 1.9 mi NW 3.5 mph - N/A   Drizzle
5:32 AM 46.4 °F 45.2 °F 46.4 °F 100% 29.83 in 1.7 mi WNW 3.5 mph - N/A   Drizzle
5:41 AM 46.4 °F 45.2 °F 46.4 °F 100% 29.83 in 1.6 mi WNW 3.5 mph - N/A   Heavy Drizzle
5:55 AM 46.4 °F 45.2 °F 46.4 °F 100% 29.83 in 1.6 mi WNW 3.5 mph - N/A Rain Light Rain
6:06 AM 46.4 °F 44.3 °F 46.4 °F 100% 29.83 in 1.6 mi NW 4.6 mph - N/A Rain Rain Showers
6:25 AM 46.4 °F 42.9 °F 46.4 °F 100% 29.83 in - NNW 6.9 mph - N/A Rain Light Rain
6:30 AM 46.4 °F 42.4 °F 46.4 °F 100% 29.83 in 2.8 mi NNW 8.1 mph - N/A Rain Light Rain
6:37 AM 46.4 °F 42.4 °F 46.4 °F 100% 29.83 in - NNW 8.1 mph - N/A Rain Light Rain
6:43 AM 46.4 °F 42.9 °F 46.4 °F 100% 29.83 in 3.1 mi NNW 6.9 mph - N/A Rain Light Rain
6:47 AM 46.4 °F 42.9 °F 46.4 °F 100% 29.83 in 3.1 mi NNW 6.9 mph - N/A Rain Light Rain
6:51 AM 46.4 °F 42.9 °F 46.4 °F 100% 29.83 in 3.1 mi NNW 6.9 mph - N/A Rain Light Rain
6:55 AM 46.4 °F 42.4 °F 46.4 °F 100% 29.83 in 3.1 mi NNW 8.1 mph - N/A Rain Rain
7:03 AM 46.4 °F 41.9 °F 46.4 °F 100% 29.86 in 3.7 mi NNW 9.2 mph - N/A Rain Rain
7:15 AM 46.4 °F 42.9 °F 46.4 °F 100% 29.86 in 4.3 mi NNW 6.9 mph - N/A Rain Rain Showers
7:25 AM 46.4 °F 42.9 °F 46.4 °F 100% 29.86 in 3.7 mi North 6.9 mph - N/A Rain Light Rain
7:37 AM 46.4 °F 43.5 °F 46.4 °F 100% 29.86 in 3.7 mi North 5.8 mph - N/A Rain Light Rain
7:41 AM 46.4 °F 43.5 °F 46.4 °F 100% 29.86 in 3.7 mi North 5.8 mph - N/A   Drizzle
7:55 AM 46.4 °F 43.5 °F 46.4 °F 100% 29.86 in 3.7 mi North 5.8 mph - N/A   Mostly Cloudy
8:12 AM 46.4 °F 45.2 °F 46.4 °F 100% 29.86 in - North 3.5 mph - N/A   Mostly Cloudy
8:16 AM 46.4 °F 45.2 °F 46.4 °F 100% 29.86 in 3.7 mi NNW 3.5 mph - N/A Rain Light Rain
8:25 AM 46.4 °F - 44.6 °F 93% 29.86 in 3.7 mi NW 2.3 mph - N/A   Light Drizzle
8:32 AM 46.4 °F - 44.6 °F 93% 29.86 in - NNW 2.3 mph - N/A   Overcast
8:38 AM 44.6 °F 42.2 °F 44.6 °F 100% 29.86 in - NW 4.6 mph - N/A   Overcast
8:42 AM 44.6 °F 41.4 °F 44.6 °F 100% 29.89 in - WNW 5.8 mph - N/A Rain Light Rain
8:43 AM 44.6 °F 41.4 °F 44.6 °F 100% 29.89 in - WNW 5.8 mph - N/A   Light Drizzle
8:55 AM 46.4 °F 44.3 °F 44.6 °F 93% 29.89 in - WNW 4.6 mph - N/A   Overcast
9:06 AM 46.4 °F 44.3 °F 44.6 °F 93% 29.89 in 2.5 mi WNW 4.6 mph - N/A   Overcast
9:15 AM 46.4 °F 45.2 °F 44.6 °F 93% 29.89 in 2.2 mi West 3.5 mph - N/A   Mostly Cloudy
9:20 AM 44.6 °F 43.1 °F 44.6 °F 100% 29.89 in - West 3.5 mph - N/A Rain Light Rain
9:25 AM 44.6 °F 42.2 °F 44.6 °F 100% 29.89 in - WNW 4.6 mph - N/A   Drizzle
9:26 AM 44.6 °F 43.1 °F 44.6 °F 100% 29.89 in - WNW 3.5 mph - N/A   Drizzle
9:37 AM 44.6 °F - 44.6 °F 100% 29.89 in - WNW 2.3 mph - N/A   Drizzle
9:38 AM 44.6 °F - 44.6 °F 100% 29.89 in 3.1 mi NW 2.3 mph - N/A Rain Light Rain
9:55 AM 46.4 °F 45.2 °F 46.4 °F 100% 29.89 in 3.1 mi NW 3.5 mph - N/A Rain Light Rain
9:59 AM 46.4 °F 45.2 °F 46.4 °F 100% 29.89 in - NW 3.5 mph - N/A Rain Light Rain
10:25 AM 46.4 °F 45.2 °F 46.4 °F 100% 29.92 in - West 3.5 mph - N/A Rain Light Rain
10:32 AM 46.4 °F 45.2 °F 46.4 °F 100% 29.92 in 3.1 mi West 3.5 mph - N/A Rain Light Rain
10:33 AM 46.4 °F 45.2 °F 46.4 °F 100% 29.92 in - West 3.5 mph - N/A Rain Light Rain
10:41 AM 46.4 °F 45.2 °F 46.4 °F 100% 29.92 in 3.1 mi WNW 3.5 mph - N/A Rain Light Rain
10:47 AM 46.4 °F 45.2 °F 46.4 °F 100% 29.92 in - WNW 3.5 mph - N/A Rain Rain
10:55 AM 46.4 °F 44.3 °F 46.4 °F 100% 29.92 in - WNW 4.6 mph - N/A Rain Light Rain
11:01 AM 46.4 °F 44.3 °F 46.4 °F 100% 29.92 in 3.1 mi WNW 4.6 mph - N/A   Drizzle
11:15 AM 46.4 °F 44.3 °F 46.4 °F 100% 29.92 in - WNW 4.6 mph - N/A   Overcast
11:19 AM 46.4 °F 44.3 °F 46.4 °F 100% 29.92 in 3.1 mi WNW 4.6 mph - N/A Rain Light Rain
11:25 AM 46.4 °F 43.5 °F 46.4 °F 100% 29.92 in 2.8 mi WNW 5.8 mph - N/A   Overcast
11:27 AM 46.4 °F 44.3 °F 46.4 °F 100% 29.92 in 3.1 mi WNW 4.6 mph - N/A Rain Light Rain
11:32 AM 46.4 °F 44.3 °F 46.4 °F 100% 29.92 in - WNW 4.6 mph - N/A Rain Rain
11:36 AM 46.4 °F 44.3 °F 46.4 °F 100% 29.92 in 3.1 mi WNW 4.6 mph - N/A Rain Light Rain
11:38 AM 46.4 °F 44.3 °F 46.4 °F 100% 29.92 in - WNW 4.6 mph - N/A Rain Light Rain Showers
11:55 AM 46.4 °F 45.2 °F 46.4 °F 100% 29.92 in - WNW 3.5 mph - N/A Rain Light Rain
11:59 AM 46.4 °F 45.2 °F 46.4 °F 100% 29.92 in 3.1 mi WNW 3.5 mph - N/A Rain Light Rain
12:03 PM 46.4 °F 45.2 °F 46.4 °F 100% 29.92 in - WNW 3.5 mph - N/A Rain Light Rain
12:16 PM 46.4 °F 45.2 °F 46.4 °F 100% 29.92 in - WNW 3.5 mph - N/A Rain Light Rain
12:25 PM 46.4 °F 45.2 °F 46.4 °F 100% 29.92 in - WNW 3.5 mph - N/A Rain Light Rain
12:26 PM 46.4 °F - 46.4 °F 100% 29.95 in - West 2.3 mph - N/A Rain Light Rain
12:37 PM 46.4 °F - 46.4 °F 100% 29.92 in 3.1 mi West 2.3 mph - N/A Rain Light Rain
12:43 PM 46.4 °F - 46.4 °F 100% 29.92 in - West 2.3 mph - N/A Rain Light Rain
12:45 PM 46.4 °F - 46.4 °F 100% 29.95 in 3.1 mi West 2.3 mph - N/A Rain Rain
12:55 PM 48.2 °F - 46.4 °F 93% 29.95 in 3.1 mi WSW 2.3 mph - N/A   Overcast
1:05 PM 48.2 °F - 48.2 °F 100% 29.95 in 5.0 mi WNW 3.5 mph - N/A   Overcast
1:08 PM 48.2 °F - 48.2 °F 100% 29.95 in 4.3 mi WNW 3.5 mph - N/A   Overcast
1:15 PM 48.2 °F - 46.4 °F 93% 29.95 in 5.0 mi WNW 4.6 mph - N/A   Overcast
1:18 PM 48.2 °F - 48.2 °F 100% 29.95 in 4.3 mi WNW 4.6 mph - N/A   Overcast
1:25 PM 48.2 °F - 46.4 °F 93% 29.95 in 5.0 mi WNW 3.5 mph - N/A   Overcast
1:36 PM 48.2 °F - 48.2 °F 100% 29.95 in 6.2 mi WNW 2.3 mph - N/A   Overcast
1:55 PM 48.2 °F - 48.2 °F 100% 29.95 in 6.2 mi NW 2.3 mph - N/A   Mostly Cloudy
2:25 PM 48.2 °F - 44.6 °F 87% 29.95 in 6.2 mi NNE 3.5 mph - N/A   Scattered Clouds
2:55 PM 50.0 °F - 44.6 °F 82% 29.95 in 6.2 mi NNE 1.2 mph - N/A   Unknown
3:25 PM 50.0 °F - 42.8 °F 76% 29.95 in 6.2 mi NE 1.2 mph - N/A   Partly Cloudy
3:55 PM 46.4 °F - 42.8 °F 87% 29.98 in 6.2 mi NNE 2.3 mph - N/A   Partly Cloudy
4:25 PM 42.8 °F - 41.0 °F 93% 29.98 in 5.6 mi Calm Calm - N/A   Partly Cloudy
4:31 PM 42.8 °F - 41.0 °F 93% 29.98 in 4.3 mi Calm Calm - N/A   Partly Cloudy
4:40 PM 42.8 °F - 41.0 °F 93% 29.98 in 1.3 mi Calm Calm - N/A   Mist
4:44 PM 41.0 °F - 41.0 °F 100% 29.98 in 0.5 mi Calm Calm - N/A Fog Fog
4:48 PM 41.0 °F - 39.2 °F 93% 29.98 in 1.1 mi SSE 1.2 mph - N/A   Mist
4:55 PM 41.0 °F - 39.2 °F 93% 29.98 in 0.5 mi South 2.3 mph - N/A Fog Fog
4:56 PM 41.0 °F - 39.2 °F 93% 29.98 in 1.6 mi South 2.3 mph - N/A   Partly Cloudy
5:03 PM 41.0 °F - 39.2 °F 93% 29.98 in - South 2.3 mph - N/A   Mist
5:04 PM 39.2 °F - 39.2 °F 100% 29.98 in 1.8 mi South 2.3 mph - N/A   Mist
5:11 PM 41.0 °F - 39.2 °F 93% 29.98 in 1.2 mi South 1.2 mph - N/A   Mist
5:12 PM 41.0 °F - 39.2 °F 93% 29.98 in 0.4 mi South 2.3 mph - N/A Fog Fog
5:25 PM 41.0 °F - 39.2 °F 93% 29.98 in 0.2 mi South 1.2 mph - N/A Fog Fog
5:26 PM 41.0 °F - 39.2 °F 93% 29.98 in 1.3 mi SSW 1.2 mph - N/A   Mostly Cloudy
5:33 PM 41.0 °F - 39.2 °F 93% 29.98 in 0.7 mi WSW 1.2 mph - N/A   Overcast
5:35 PM 37.4 °F - 37.4 °F 100% 29.98 in 1.4 mi West 1.2 mph - N/A   Mostly Cloudy
5:50 PM 37.4 °F - 37.4 °F 100% 30.01 in 1.5 mi NW 1.2 mph - N/A   Mostly Cloudy
5:55 PM 37.4 °F - 37.4 °F 100% 30.01 in 0.4 mi Calm Calm - N/A Fog Fog
6:13 PM 37.4 °F - 37.4 °F 100% 30.01 in 0.9 mi NW 1.2 mph - N/A   Mist
6:25 PM 35.6 °F - 35.6 °F 100% 30.01 in 0.6 mi West 1.2 mph - N/A   Mostly Cloudy
6:31 PM 35.6 °F - 35.6 °F 100% 30.01 in 0.6 mi SSW 1.2 mph - N/A Fog Fog
6:48 PM 37.4 °F - 37.4 °F 100% 30.01 in 0.5 mi South 2.3 mph - N/A Fog Fog
6:55 PM 37.4 °F - 35.6 °F 93% 30.01 in 1.3 mi South 2.3 mph - N/A   Mostly Cloudy
7:17 PM 35.6 °F - 35.6 °F 100% 30.01 in 0.7 mi South 1.2 mph - N/A   Mist
7:21 PM 33.8 °F - 33.8 °F 100% 30.01 in 0.4 mi SSW 1.2 mph - N/A Fog Fog
7:25 PM 33.8 °F - 33.8 °F 100% 30.01 in 0.3 mi SSW 1.2 mph - N/A Fog Fog
7:30 PM 33.8 °F - 33.8 °F 100% 30.01 in 0.6 mi SW 1.2 mph - N/A   Mist
7:38 PM 33.8 °F - 33.8 °F 100% 30.04 in - Calm Calm - N/A Fog Fog
7:45 PM 33.8 °F - 33.8 °F 100% 30.04 in 0.5 mi WNW 1.2 mph - N/A Fog Fog
7:49 PM 33.8 °F - 33.8 °F 100% 30.04 in - WNW 1.2 mph - N/A Fog Fog
7:55 PM 33.8 °F - 33.8 °F 100% 30.04 in - West 1.2 mph - N/A Fog Fog
8:10 PM 33.8 °F - 33.8 °F 100% 30.04 in 0.5 mi Calm Calm - N/A Fog Fog
8:17 PM 33.8 °F - 33.8 °F 100% 30.04 in 0.7 mi NNE 1.2 mph - N/A   Overcast
8:25 PM 33.8 °F - 33.8 °F 100% 30.04 in 0.3 mi Calm Calm - N/A Fog Fog
8:55 PM 33.8 °F - 33.8 °F 100% 30.04 in 0.2 mi Calm Calm - N/A Fog Fog
9:25 PM 32.0 °F - 32.0 °F 100% 30.04 in 0.2 mi South 1.2 mph - N/A Fog Fog
9:55 PM 32.0 °F - 32.0 °F 100% 30.04 in 0.2 mi SSW 2.3 mph - N/A Fog Light Freezing Fog
10:25 PM 32.0 °F - 32.0 °F 100% 30.04 in 0.2 mi SSW 1.2 mph - N/A Fog Light Freezing Fog
10:55 PM 30.2 °F - 30.2 °F 100% 30.06 in 0.2 mi East 1.2 mph - N/A Fog Light Freezing Fog
11:25 PM 30.2 °F - 30.2 °F 100% 30.04 in 0.2 mi Calm Calm - N/A Fog Light Freezing Fog
11:55 PM 30.2 °F - 30.2 °F 100% 30.04 in 0.3 mi East 1.2 mph - N/A Fog Light Freezing Fog